DW7857 Weather Reports


Display with metric or nautical units.
time (UTC)temp
F
wind
direction
speed
MPH
gust
MPH
rain 1hr
in
rain 24hr
in
rain mn
in
humidity
%
barometer
mb
20210922110003 63 356 2.0 4.0 0.00 0.00 0.00 76 1028.8
20210922105403 64 58 2.0 4.0 0.00 0.00 0.00 72 1028.6
20210922104503 64 31 2.0 4.0 0.00 0.00 0.00 72 1028.9
20210922103603 63 58 1.0 3.0 0.00 0.00 0.00 77 1028.9
20210922102703 63 56 2.0 4.0 0.00 0.00 0.00 77 1028.8
20210922101803 63 11 2.0 4.0 0.00 0.00 0.00 75 1028.9
20210922100903 63 330 2.0 4.0 0.00 0.00 0.00 74 1028.7
20210922100003 64 35 2.0 4.0 0.00 0.00 0.00 71 1028.9
20210922095403 64 7 2.0 5.0 0.00 0.00 0.00 70 1028.8
20210922094503 66 30 3.0 5.0 0.00 0.00 0.00 68 1028.9
20210922093604 67 47 2.0 6.0 0.00 0.00 0.00 71 1028.9
20210922092704 65 31 3.0 6.0 0.00 0.00 0.00 70 1028.8
20210922091803 66 39 2.0 4.0 0.00 0.00 0.00 70 1029.2
20210922090903 65 89 1.0 4.0 0.00 0.00 0.00 71 1028.9
20210922090003 65 53 2.0 4.0 0.00 0.00 0.00 70 1028.9
20210922085403 67 43 1.0 4.0 0.00 0.00 0.00 68 1029.0
20210922084503 68 80 0.0 2.0 0.00 0.00 0.00 70 1029.0
20210922083603 68 140 0.0 2.0 0.00 0.00 0.00 72 1029.0
20210922082703 67 156 0.0 2.0 0.00 0.00 0.00 80 1029.0
20210922081803 65 0 0.0 1.0 0.00 0.00 0.00 97 1029.1
20210922080903 61 180 0.0 2.0 0.00 0.00 0.00 100 1029.1
20210922080004 58 213 0.0 2.0 0.00 0.00 0.00 100 1029.2
20210922075403 57 237 0.0 2.0 0.00 0.00 0.00 100 1029.1
20210922074503 56 241 0.0 2.0 0.00 0.00 0.00 100 1028.9
20210922073603 58 0 0.0 1.0 0.00 0.00 0.00 100 1028.9
20210922072703 57 180 0.0 2.0 0.00 0.00 0.00 100 1028.9
20210922071803 56 0 0.0 1.0 0.00 0.00 0.00 100 1028.9
20210922070903 55 0 0.0 0.0 0.00 0.00 0.00 100 1028.7
20210922070003 51 0 0.0 0.0 0.00 0.00 0.00 100 1028.7
20210922065403 49 0 0.0 0.0 0.00 0.00 0.00 100 1028.9
20210922064503 48 0 0.0 0.0 0.00 0.00 0.00 100 1028.7
20210922063603 47 0 0.0 0.0 0.00 0.00 0.00 100 1028.6
20210922062703 47 0 0.0 0.0 0.00 0.00 0.00 100 1028.7
20210922061803 47 0 0.0 0.0 0.00 0.00 0.00 100 1028.7
20210922060903 47 0 0.0 0.0 0.00 0.00 0.00 100 1028.5
20210922060003 47 0 0.0 1.0 0.00 0.00 0.00 100 1028.6
20210922055403 47 0 0.0 1.0 0.00 0.00 0.00 100 1028.5
20210922054503 47 0 0.0 0.0 0.00 0.00 0.00 100 1028.8
20210922053603 47 0 0.0 1.0 0.00 0.00 0.00 100 1028.5
20210922052703 47 0 0.0 1.0 0.00 0.00 0.00 100 1028.3
20210922051803 47 0 0.0 1.0 0.00 0.00 0.00 100 1028.6
20210922050903 47 0 0.0 0.0 0.00 0.00 0.00 100 1028.7
20210922050003 47 0 0.0 0.0 0.00 0.00 0.00 100 1028.5
20210922045403 47 0 0.0 0.0 0.00 0.00 0.00 100 1028.4
20210922044503 47 0 0.0 1.0 0.00 0.00 0.00 100 1028.7
20210922043603 47 0 0.0 0.0 0.00 0.00 0.00 100 1028.8
20210922042703 48 0 0.0 1.0 0.00 0.00 0.00 100 1028.5
20210922041803 48 0 0.0 1.0 0.00 0.00 0.00 100 1028.7
20210922040903 48 0 0.0 0.0 0.00 0.00 0.00 100 1028.7
20210922040003 49 180 0.0 2.0 0.00 0.00 0.00 100 1028.5
20210922035403 49 137 0.0 2.0 0.00 0.00 0.00 100 1028.6
20210922034504 49 163 0.0 2.0 0.00 0.00 0.00 100 1028.8
20210922033603 49 0 0.0 1.0 0.00 0.00 0.00 100 1028.6
20210922032703 49 184 1.0 2.0 0.00 0.00 0.00 100 1029.0
20210922031803 49 181 0.0 2.0 0.00 0.00 0.00 100 1029.2
20210922030903 49 0 0.0 1.0 0.00 0.00 0.00 100 1029.0
20210922030003 49 0 0.0 1.0 0.00 0.00 0.00 100 1029.3
20210922025403 49 0 0.0 1.0 0.00 0.00 0.00 100 1029.0
20210922024503 49 0 0.0 0.0 0.00 0.00 0.00 100 1029.1
20210922023603 49 0 0.0 0.0 0.00 0.00 0.00 100 1029.1
20210922022703 49 191 0.0 2.0 0.00 0.00 0.00 100 1029.2
20210922021803 49 0 0.0 0.0 0.00 0.00 0.00 100 1029.2
20210922020903 49 0 0.0 1.0 0.00 0.00 0.00 100 1029.4
20210922020003 49 0 0.0 2.0 0.00 0.00 0.00 100 1029.6
20210922015403 49 0 0.0 2.0 0.00 0.00 0.00 100 1029.9
20210922014503 49 0 0.0 1.0 0.00 0.00 0.00 100 1029.6
20210922013603 50 0 0.0 1.0 0.00 0.00 0.00 100 1029.8
20210922012703 50 0 0.0 0.0 0.00 0.00 0.00 97 1029.8
20210922011803 50 0 0.0 1.0 0.00 0.00 0.00 97 1030.0
20210922010903 50 177 0.0 2.0 0.00 0.00 0.00 97 1030.2
20210922010003 50 0 0.0 1.0 0.00 0.00 0.00 97 1030.2
20210922005403 50 0 0.0 1.0 0.00 0.00 0.00 97 1029.9
20210922004503 51 0 0.0 1.0 0.00 0.00 0.00 97 1029.8
20210922003603 51 0 0.0 0.0 0.00 0.00 0.00 97 1029.8
20210922002703 51 160 0.0 1.0 0.00 0.00 0.00 96 1029.9
20210922001803 51 0 0.0 1.0 0.00 0.00 0.00 96 1030.2
20210922000903 51 0 0.0 0.0 0.00 0.00 0.00 96 1030.2
20210922000003 50 0 0.0 0.0 0.00 0.00 0.00 95 1030.1
20210921235403 51 0 0.0 0.0 0.00 0.00 0.00 95 1030.4
20210921234503 51 0 0.0 1.0 0.00 0.00 0.00 95 1030.5
20210921233603 51 0 0.0 1.0 0.00 0.00 0.00 95 1030.5
20210921232703 51 0 0.0 1.0 0.00 0.00 0.00 95 1030.6
20210921231803 51 0 0.0 0.0 0.00 0.00 0.00 95 1030.5
20210921230903 52 0 0.0 0.0 0.00 0.00 0.00 95 1030.6
20210921230003 51 270 0.0 2.0 0.00 0.00 0.00 95 1030.6
20210921225404 52 270 0.0 2.0 0.00 0.00 0.00 95 1030.4
20210921224503 52 0 0.0 1.0 0.00 0.00 0.00 95 1030.4
20210921223603 53 201 0.0 2.0 0.00 0.00 0.00 95 1030.3
20210921222703 53 195 0.0 2.0 0.00 0.00 0.00 94 1030.5
20210921221803 53 134 0.0 2.0 0.00 0.00 0.00 94 1030.7
20210921220903 53 180 0.0 2.0 0.00 0.00 0.00 93 1030.6
20210921220003 53 0 0.0 1.0 0.00 0.00 0.00 93 1030.5
20210921215403 53 0 0.0 1.0 0.00 0.00 0.00 93 1030.6
20210921214503 54 223 0.0 2.0 0.00 0.00 0.00 93 1030.5
20210921213603 54 262 1.0 2.0 0.00 0.00 0.00 93 1030.5
20210921212703 54 154 0.0 2.0 0.00 0.00 0.00 93 1030.5
20210921211803 55 175 1.0 3.0 0.00 0.00 0.00 90 1030.6
20210921210904 55 197 1.0 3.0 0.00 0.00 0.00 90 1030.6
20210921210005 54 166 0.0 2.0 0.00 0.00 0.00 88 1030.3
20210921205404 55 204 0.0 2.0 0.00 0.00 0.00 88 1030.4
20210921204504 55 181 0.0 2.0 0.00 0.00 0.00 88 1030.3
20210921203604 55 180 0.0 2.0 0.00 0.00 0.00 87 1030.5
20210921202704 55 0 0.0 1.0 0.00 0.00 0.00 86 1030.3
20210921201804 56 0 0.0 1.0 0.00 0.00 0.00 85 1030.5
20210921200904 56 219 0.0 2.0 0.00 0.00 0.00 85 1030.5
20210921200004 56 0 0.0 1.0 0.00 0.00 0.00 84 1030.6
20210921195403 56 197 0.0 1.0 0.00 0.00 0.00 84 1030.2
20210921194503 57 0 0.0 1.0 0.00 0.00 0.00 83 1030.5
20210921193604 57 180 0.0 2.0 0.00 0.00 0.00 83 1030.3
20210921192704 57 187 0.0 2.0 0.00 0.00 0.00 82 1030.5
20210921191804 58 0 0.0 0.0 0.00 0.00 0.00 81 1030.5
20210921190903 58 0 0.0 0.0 0.00 0.00 0.00 80 1030.3
20210921190004 59 0 0.0 0.0 0.00 0.00 0.00 80 1030.3
20210921185403 59 0 0.0 0.0 0.00 0.00 0.00 79 1030.1
20210921184503 60 0 0.0 1.0 0.00 0.00 0.00 77 1030.4
20210921183603 61 194 1.0 3.0 0.00 0.00 0.00 77 1030.2
20210921182703 61 186 1.0 3.0 0.00 0.00 0.00 76 1029.9
20210921181803 62 155 0.0 2.0 0.00 0.00 0.00 74 1029.8
20210921180903 62 0 0.0 1.0 0.00 0.00 0.00 73 1030.0
20210921180003 63 0 0.0 1.0 0.00 0.00 0.00 72 1029.8
20210921175403 64 0 0.0 0.0 0.00 0.00 0.00 69 1029.9
20210921174503 64 42 0.0 2.0 0.00 0.00 0.00 68 1029.7
20210921173603 65 55 1.0 2.0 0.00 0.00 0.00 68 1029.7
20210921172703 65 41 0.0 2.0 0.00 0.00 0.00 67 1029.7
20210921171803 66 336 2.0 4.0 0.00 0.00 0.00 66 1029.7
20210921170903 66 218 2.0 6.0 0.00 0.00 0.00 64 1029.9
20210921170003 67 174 1.0 4.0 0.00 0.00 0.00 64 1029.8
20210921165403 67 171 2.0 4.0 0.00 0.00 0.00 63 1029.9
20210921164503 68 207 2.0 4.0 0.00 0.00 0.00 62 1029.6
20210921163603 68 118 1.0 4.0 0.00 0.00 0.00 62 1029.9
20210921162703 69 168 2.0 4.0 0.00 0.00 0.00 61 1029.8
20210921161803 70 183 2.0 4.0 0.00 0.00 0.00 60 1029.7
20210921160903 70 159 1.0 3.0 0.00 0.00 0.00 59 1029.9
20210921160003 70 211 1.0 3.0 0.00 0.00 0.00 57 1029.9
20210921155403 71 226 0.0 2.0 0.00 0.00 0.00 55 1029.8
20210921154503 71 72 0.0 2.0 0.00 0.00 0.00 54 1029.9
20210921153603 72 314 1.0 4.0 0.00 0.00 0.00 52 1030.2
20210921152703 73 91 1.0 2.0 0.00 0.00 0.00 50 1029.8
20210921151803 72 5 1.0 4.0 0.00 0.00 0.00 51 1029.9
20210921150903 72 306 1.0 4.0 0.00 0.00 0.00 54 1030.2
20210921150004 71 356 1.0 4.0 0.00 0.00 0.00 55 1030.2
20210921145403 70 55 1.0 3.0 0.00 0.00 0.00 55 1030.1
20210921144503 71 48 2.0 4.0 0.00 0.00 0.00 54 1030.3
20210921143603 72 65 2.0 4.0 0.00 0.00 0.00 52 1030.2
20210921142703 73 96 1.0 2.0 0.00 0.00 0.00 50 1030.4
20210921141803 73 81 1.0 3.0 0.00 0.00 0.00 50 1030.3
20210921140903 73 66 1.0 3.0 0.00 0.00 0.00 49 1030.6
20210921140003 73 82 1.0 4.0 0.00 0.00 0.00 50 1030.4
20210921135403 72 38 2.0 4.0 0.00 0.00 0.00 55 1030.5
20210921134503 71 71 2.0 4.0 0.00 0.00 0.00 55 1030.5
20210921133603 72 126 1.0 3.0 0.00 0.00 0.00 53 1030.6
20210921132703 70 33 1.0 4.0 0.00 0.00 0.00 55 1030.9
20210921131803 70 37 2.0 4.0 0.00 0.00 0.00 54 1030.7
20210921130903 71 33 2.0 5.0 0.00 0.00 0.00 54 1030.7
20210921130004 71 48 2.0 5.0 0.00 0.00 0.00 53 1030.6
20210921125403 71 175 1.0 4.0 0.00 0.00 0.00 52 1030.7
20210921124503 72 117 1.0 3.0 0.00 0.00 0.00 51 1030.7
20210921123603 73 179 1.0 2.0 0.00 0.00 0.00 50 1030.8
20210921122703 74 84 1.0 4.0 0.00 0.00 0.00 50 1030.8
20210921121803 72 220 1.0 4.0 0.00 0.00 0.00 51 1031.0
20210921120903 72 126 1.0 4.0 0.00 0.00 0.00 53 1031.0
20210921120003 72 355 1.0 4.0 0.00 0.00 0.00 54 1031.0
20210921115403 71 34 2.0 4.0 0.00 0.00 0.00 55 1030.9
20210921114503 71 337 2.0 4.0 0.00 0.00 0.00 56 1031.0
20210921113603 71 69 2.0 4.0 0.00 0.00 0.00 57 1031.2
20210921112703 70 27 2.0 4.0 0.00 0.00 0.00 60 1031.3
20210921111803 69 119 2.0 4.0 0.00 0.00 0.00 61 1031.3
20210921110903 68 65 3.0 5.0 0.00 0.00 0.00 60 1031.5